Regional Weather Roundup
Issued by NWS Sterling, VA

Home | Current Version | Previous Version | Text Only | Print | Product List | Glossary Off
Versions: 1 2 3 4 5 6 7 8 9 10 11 12 13 14 15 16 17 18 19 20 21 22 23 24 25 26 27 28 29 30 31 32 33 34 35 36 37 38 39 40 41 42 43 44 45 46 47 48 49 50

000
ASUS41 KLWX 300210
RWRLWX

REGIONAL WEATHER ROUNDUP
NATIONAL WEATHER SERVICE BALTIMORE MD/WASHINGTON DC
1000 PM EDT SAT AUG 29 2015

Note: "FAIR" indicates few or no clouds below 12,000 feet
with no significant weather and/or obstructions to visibility.
 TC=TEMPERATURE CELSIUS

 * =Non NWS site. Station does not report precipitation (e.g. rain,
    snow, etc.), thunder, or fog.

DCZ001-MDZ009-015-VAZ040>042-051-053>054-300300-
WASHINGTON METRO

CITY           SKY/WX    TMP DP  RH WIND       PRES   REMARKS
WASHINGTON NAT MOCLDY    77  66  68 S14       30.12R
DULLES         MOCLDY    76  64  66 S7        30.12R
ANDREWS AFB    MOCLDY    74  64  70 S10       30.12R
FT BELVOIR     MOCLDY    75  66  75 SE6       30.12R
QUANTICO       MOCLDY    76  67  73 S12       30.14R
COLLEGE PARK*  MOCLDY    77  63  61 S5        30.12R
LEESBURG*      MOCLDY    77  66  69 S12       30.12R
MANASSAS*      PTCLDY    72  66  83 CALM      30.12R
GAITHERSBURG*  PTCLDY    75  63  64 SE8       30.16R

$$

MDZ006>007-011-014-300300-
BALTIMORE METRO

CITY           SKY/WX    TMP DP  RH WIND       PRES   REMARKS
BWI AIRPORT    MOCLDY    74  62  66 CALM      30.12R
MD SCIENCE CTR   N/A     77  63  61 MISG      30.13R
MARTIN STATE   CLEAR     79  70  73 S7        30.13R
ANNAPOLIS      CLOUDY    77  62  59 S8        30.12R
FORT MEADE*    MOCLDY    68  63  83 CALM      30.15R

$$

MDZ012-015-019>023-300300-
MARYLAND EASTERN SHORE

CITY           SKY/WX    TMP DP  RH WIND       PRES   REMARKS
OCEAN CITY     CLOUDY    75  61  61 VRB5      30.15R
SALISBURY      CLOUDY    68  63  84 CALM      30.14R
BAY BRIDGE AP*   N/A     77  63  61 S7        30.12S
CAMBRIDGE*     CLOUDY    72  63  73 S3        30.14R

$$

MDZ017>025-300300-
SOUTHERN MARYLAND

CITY           SKY/WX    TMP DP  RH WIND       PRES   REMARKS
PATUXENT RIVER MOCLDY    72  63  73 S6        30.14R
ST INIGOES     MOCLDY    75  64  68 S6        30.14R
LEONARDTOWN*   MOCLDY    72  63  73 CALM      30.16R

$$

MDZ003>005-300300-
NORTH CENTRAL MARYLAND

CITY           SKY/WX    TMP DP  RH WIND       PRES   REMARKS
FREDERICK*     PTCLDY    73  64  73 CALM      30.13R
HAGERSTOWN APT MOCLDY    78  63  59 SE5       30.11R
WESTMINSTER*   PTCLDY    75  66  73 SE7       30.13S

$$

MDZ501>502-300300-
WESTERN MARYLAND

CITY           SKY/WX    TMP DP  RH WIND       PRES   REMARKS
OAKLAND*       PTCLDY    66  55  68 SW5       30.22S
CUMBERLAND*    PTCLDY    73  61  64 N5        30.15R

$$

VAZ025>031-300300-
SHENANDOAH VALLEY

CITY           SKY/WX    TMP DP  RH WIND       PRES   REMARKS
WINCHESTER*    PTCLDY    77  64  65 S5        30.11S
FRONT ROYAL*   FAIR      73  63  68 CALM      30.11S
LURAY*         FAIR      70  61  73 S5        30.13S
NEW MARKET*    FAIR      70  63  78 CALM      30.12R
STAUNTON*      PTCLDY    73  61  65 CALM      30.18R
WAYNESBORO*    FAIR      71  61  70 CALM      30.17R

$$

WVZ021-048>050-054>055-300300-
EASTERN WEST VIRGINIA PANHANDLE

CITY           SKY/WX    TMP DP  RH WIND       PRES   REMARKS
MARTINSBURG    PTCLDY    71  64  78 CALM      30.11R
PETERSBURG*    PTCLDY    69  64  85 CALM      30.14R

$$

VAZ036>039-050-300300-
CENTRAL FOOTHILLS

CITY           SKY/WX    TMP DP  RH WIND       PRES   REMARKS
CHARLOTTESVILL PTCLDY    73  63  70 S5        30.13R
CULPEPER*      MOCLDY    71  65  79 CALM      30.13R
ORANGE*        MOCLDY    72  64  78 CALM      30.14S
GORDONSVILLE*  FAIR      68  66  94 CALM      30.13S
WARRENTON*     MOCLDY    75  67  75 S3        30.12S

$$

VAZ055>057-300300-
NORTH AND CENTRAL PIEDMONT

CITY           SKY/WX    TMP DP  RH WIND       PRES   REMARKS
FREDERICKSBRG* MOCLDY    75  66  72 SE6       30.12R
STAFFORD*      MOCLDY    72  64  74 CALM      30.17R

$$

NCZ024-NYZ072-PAZ021-071-VAZ022-071-300300-
OTHER REGIONAL OBSERVATIONS

CITY           SKY/WX    TMP DP  RH WIND       PRES   REMARKS
NEW YORK CITY  CLEAR     77  58  51 VRB3      30.13S
PHILADELPHIA   MOCLDY    76  61  59 SW6       30.13R
PITTSBURGH     MOCLDY    76  63  64 S3        30.11R
ROANOKE        MOCLDY    72  63  73 CALM      30.19R
RICHMOND       CLOUDY    72  62  71 S5        30.15R
RALEIGH        CLOUDY    73  62  68 CALM      30.15R

$$

ANZ530>537-300300-
MARINE OBSERVATIONS

STATION/POSITION TIME  TEMP    WIND        PRES
                       AIR SEA DIR/SP/G
                 (UTC) (F)     (DEG/KT/KT) (MB)
THOMAS PT LIGHT  0100   78 79  180/ 19/ 22 1019.9R

$$



USA.gov is the U.S. government's official web portal to all federal, state and local government web resources and services.